Taurus 1 (44530 NORAD) Tracking and Keplerian Element Data

This shows tracking and keplerian element data for the satellite.

Feedback or suggestion? Click here.




ElementValue
Catalog44530
NameTaurus 1
Epoch Orbit513
Epoch Day290.70587755
Epoch Year2019
RAAN4.346
Inclination98.5851
Eccentricity0.0015279
Argument of Perigee164.9855
Mean Anonmoly195.1802
Mean Motion14.45255017
Decay Rate4.95E-06
L11 44530U 19059C 19290.70587755 .00000495 00000-0 15385-3 0 9998
L22 44530 98.5851 4.3460 0015279 164.9855 195.1802 14.45255017 5132

Live tracking and technical data element details for Taurus 1 (NORAD 44530). Taurus 1 can be tracked NOW for your location showing map with azimuth and elevation plus other details from your city location.

Track the satellite on the map from your city or location and see movement details for azimuth, elevation, latitude, longitude, range, height, and movement on the map or in text.







IsCatalogInMostPopularTable: catalog: 44530, numindb: 10
Update: records affected: 1



GetName: 44530 Taurus 1

Hit Count: updated at: Tue, 22 Oct 2019 23:32:18 GMT